Location: Zagreb
(45.8000°N, 16.0000°E)
Time: 19:52:39
(UTC+01:00)

Oscar 11 - Pass Details

Date: 07 November 2020
Orbit: 613 x 625 km, 97.6° (Epoch: 01 December)

Event Time Altitude Azimuth Distance (km) Brightness Sun altitude
Rises 18:19:19 0° 200° (SSW) 2,878 10.8 -18.6°
Reaches altitude 10° 18:21:55 10° 216° (SW) 1,976 10.2 -19.1°
Maximum altitude 18:25:15 22° 267° (W) 1,360 9.7 -19.6°
Drops below altitude 10° 18:28:37 10° 319° (NW) 1,984 10.1 -20.2°
Sets 18:31:14 0° 334° (NNW) 2,893 10.8 -20.7°
